Syracuse, NY

12:58 PM EST on December 05, 2019 (GMT -0500)
Syracuse Hancock International

Weather History for KSYR - October, 2019

Change the Weather History Date:

Thursday, October 3, 2019

  Actual Average Record
Temperature  
Mean Temperature 54 °F 55 °F  
Max Temperature 59 °F 65 °F 86 °F (1951)
Min Temperature 48 °F 45 °F 31 °F (1946)
Degree Days  
Heating Degree Days 12 10  
Month to date heating degree days 16 30  
Since 1 July heating degree days 91 197  
Cooling Degree Days 0 0  
Month to date cooling degree days 11 0  
Year to date cooling degree days 622 565  
Growing Degree Days 4 (Base 50)    
Moisture  
Dew Point 46 °F    
Average Humidity 87    
Maximum Humidity 96    
Minimum Humidity 71    
Precipitation  
Precipitation 0.17 in 0.11 in 0.86 in (1941)
Month to date precipitation 0.29 0.34  
Year to date precipitation 34.42 28.62  
Snow  
Snow - 0.00 in 1.00 in (1974)
Month to date snowfall 0.0 0.0  
Since 1 July snowfall T 0.0  
Since 1 September snowfall T 0.0  
Snow Depth 0.00 in    
Sea Level Pressure  
Sea Level Pressure 30.03 in    
Wind  
Wind Speed 7 mph ()    
Max Wind Speed 23 mph    
Max Gust Speed 29 mph    
Visibility 7.2 miles    
Events Rain    
T = Trace of Precipitation, MM = Missing Value Source: Averaged Metar Reports

Daily Weather History Graph

Daily Weather History Graph

Search for Another Location

Airport or City:

Astronomy

Oct. 03, 2019 Rise Set
Actual Time 7:03 AM EDT 6:42 PM EDT
Civil Twilight 6:35 AM EDT 7:10 PM EDT
Nautical Twilight 6:02 AM EDT 7:43 PM EDT
Astronomical Twilight 5:29 AM EDT 8:16 PM EDT
Moon 12:40 PM EDT (10/3) 10:11 PM EDT (10/3)
Length of Visible Light 12h 35m
Length of Day
11h 38m
Waxing Crescent, 29% of the Moon is Illuminated
Oct 3
Waxing Crescent
Oct 5
First Quarter
Oct 13
Full
Oct 21
Last Quarter
Oct 27
New

Hourly Weather History & Observations

Time (EDT) Temp. Dew Point Humidity Pressure Visibility Wind Dir Wind Speed Gust Speed Precip Events Conditions
12:54 AM 48.0 °F 44.1 °F 86% 30.10 in 10.0 mi NNW 5.8 mph - N/A   Mostly Cloudy
1:54 AM 48.9 °F 43.0 °F 80% 30.11 in 10.0 mi North 8.1 mph - N/A   Overcast
2:54 AM 48.9 °F 44.1 °F 83% 30.09 in 10.0 mi NNW 3.5 mph - N/A   Overcast
2:58 AM 48.9 °F 44.1 °F 83% 30.10 in 10.0 mi North 3.5 mph - N/A   Overcast
3:38 AM 50.0 °F 46.0 °F 86% 30.10 in 10.0 mi ENE 5.8 mph - N/A   Overcast
3:54 AM 50.0 °F 46.0 °F 86% 30.10 in 10.0 mi ENE 3.5 mph - N/A   Overcast
4:01 AM 50.0 °F 46.0 °F 86% 30.10 in 10.0 mi East 3.5 mph - N/A   Overcast
4:36 AM 50.0 °F 46.0 °F 86% 30.11 in 10.0 mi NE 5.8 mph - N/A   Overcast
4:54 AM 50.0 °F 46.0 °F 86% 30.10 in 10.0 mi ENE 6.9 mph - N/A   Overcast
5:32 AM 50.0 °F 45.0 °F 83% 30.11 in 10.0 mi East 10.4 mph - N/A   Overcast
5:54 AM 50.0 °F 44.1 °F 80% 30.10 in 10.0 mi East 11.5 mph - N/A   Overcast
6:54 AM 48.9 °F 42.1 °F 77% 30.13 in 10.0 mi East 8.1 mph - N/A   Overcast
7:54 AM 48.0 °F 39.0 °F 71% 30.13 in 10.0 mi East 9.2 mph - N/A   Overcast
8:54 AM 48.0 °F 39.0 °F 71% 30.12 in 10.0 mi ENE 11.5 mph - N/A   Overcast
9:54 AM 48.0 °F 39.9 °F 74% 30.10 in 10.0 mi East 10.4 mph - 0.00 in Rain Light Rain
10:54 AM 48.0 °F 41.0 °F 77% 30.09 in 10.0 mi East 10.4 mph - 0.00 in Rain Light Rain
11:54 AM 48.0 °F 44.1 °F 86% 30.08 in 3.0 mi East 10.4 mph - 0.02 in Rain Light Rain
12:26 PM 48.0 °F 45.0 °F 89% 30.08 in 1.8 mi ENE 8.1 mph - 0.01 in Rain Light Rain
12:54 PM 48.0 °F 46.9 °F 96% 30.06 in 4.0 mi East 9.2 mph - 0.03 in Rain Light Rain
1:08 PM 48.9 °F 46.0 °F 90% 30.05 in 5.0 mi East 10.4 mph - 0.00 in Rain Light Rain
1:54 PM 50.0 °F 48.0 °F 93% 30.01 in 4.0 mi East 10.4 mph - 0.01 in Rain Light Rain
2:38 PM 50.0 °F 48.0 °F 93% 30.00 in 2.0 mi East 8.1 mph - 0.02 in Rain Light Rain
2:54 PM 50.0 °F 48.0 °F 93% 29.99 in 3.0 mi East 12.7 mph - 0.04 in Rain Light Rain
3:54 PM 50.0 °F 48.0 °F 93% 29.97 in 3.0 mi East 10.4 mph - 0.01 in Rain Light Rain
4:54 PM 50.0 °F 48.0 °F 93% 29.94 in 4.0 mi ENE 12.7 mph - 0.02 in Rain Light Rain
5:23 PM 50.0 °F 48.0 °F 93% 29.93 in 10.0 mi ENE 10.4 mph - 0.00 in   Overcast
5:41 PM 50.0 °F 48.0 °F 93% 29.92 in 8.0 mi ENE 12.7 mph - 0.00 in   Overcast
5:54 PM 50.0 °F 48.0 °F 93% 29.92 in 4.0 mi ENE 10.4 mph - 0.00 in   Overcast
6:54 PM 50.0 °F 48.9 °F 96% 29.91 in 4.0 mi ENE 8.1 mph - N/A   Overcast
7:20 PM 51.1 °F 48.9 °F 92% 29.91 in 4.0 mi East 8.1 mph - 0.01 in Rain Light Rain
7:54 PM 51.1 °F 48.9 °F 92% 29.91 in 5.0 mi East 5.8 mph - 0.01 in   Overcast
8:54 PM 52.0 °F 50.0 °F 93% 29.91 in 5.0 mi NE 4.6 mph - 0.02 in   Overcast
9:13 PM 52.0 °F 50.0 °F 93% 29.91 in 3.0 mi Calm Calm - N/A   Overcast
9:54 PM 53.1 °F 51.1 °F 93% 29.90 in 6.0 mi East 3.5 mph - N/A   Overcast
10:54 PM 57.9 °F 55.0 °F 90% 29.92 in 10.0 mi West 12.7 mph - 0.01 in   Overcast
11:54 PM 57.0 °F 54.0 °F 89% 29.93 in 10.0 mi West 18.4 mph 28.8 mph 0.00 in   Light Drizzle